Wind_Speed
23 25 26 26 27 27 27 26 26 28 28 27 28 27 26 26 26 26 26 24 24 25 25 23 22 20 21 21 19 18 20 21 19 18 17 15 15 11 8 8 9 10 10 11 13 16 16 15 15 15 16 19 19 19 19 18 16 15 15 15 15 16 16 17 17 17 18 18 17 17 16 15 13 12 10 9 8 7 7 7 7 7 7 6 6 4
24 22 19 21 26 27 28 28 29 30 30 29 30 28 28 28 26 25 27 26 25 26 25 23 23 22 22 23 22 21 21 22 21 20 19 17 16 12 11 10 10 11 11 12 14 17 17 16 16 15 16 18 19 19 19 19 18 17 16 16 16 17 17 18 18 19 19 18 18 17 15 14 12 11 10 10 9 9 8 8 7 8 7 7 6 4
24 19 16 20 24 27 29 30 31 32 32 31 30 28 28 27 24 24 27 26 25 25 24 23 24 25 24 23 23 24 23 22 22 22 21 19 18 16 15 13 13 14 13 14 16 18 18 18 17 16 17 19 19 20 20 20 19 18 17 17 17 17 18 19 19 19 19 18 17 16 14 13 12 11 11 11 10 10 10 9 9 9 9 8 7 5
23 18 19 21 24 28 30 31 32 32 33 33 31 29 28 24 23 24 24 25 25 23 24 26 27 27 25 25 25 26 24 23 23 23 22 21 20 19 17 15 16 16 14 15 17 18 18 18 17 17 18 20 21 21 20 20 19 18 18 18 18 18 19 20 20 19 19 17 16 15 15 14 13 13 13 12 12 12 11 11 11 11 10 9 8 6
23 22 24 25 26 28 30 31 32 33 34 34 32 30 28 25 26 26 22 24 24 23 28 30 30 29 27 25 25 24 24 25 26 25 25 24 23 21 19 19 20 18 16 16 18 18 19 18 18 18 19 21 22 21 21 20 20 20 20 20 20 20 20 20 20 20 18 17 17 16 16 15 15 15 15 14 14 12 11 11 10 10 10 9 8 7
27 28 29 28 27 29 31 32 33 34 35 34 32 30 30 31 31 29 24 22 24 27 32 32 31 31 27 25 25 25 25 27 29 29 28 27 25 23 21 21 20 19 18 18 18 19 19 19 19 19 20 21 22 22 22 22 22 22 22 21 21 21 21 21 21 20 19 19 18 18 18 18 17 17 17 15 13 11 10 10 10 10 10 10 9 8
31 31 31 29 29 30 32 34 35 35 35 35 32 30 33 36 36 35 30 25 24 24 27 33 35 32 28 28 27 28 28 28 30 32 30 28 27 25 23 21 19 18 18 18 18 18 18 19 19 19 20 21 23 23 23 23 23 23 23 23 22 22 22 21 20 19 19 20 20 20 20 19 19 17 16 14 12 11 11 11 11 11 11 11 10 8
32 33 34 32 32 33 34 35 35 36 37 37 35 35 37 38 39 39 36 33 30 24 23 29 33 31 32 31 29 29 31 30 30 32 31 29 29 27 23 22 20 18 17 17 16 17 19 20 19 20 22 23 24 24 23 23 23 23 24 24 23 23 23 21 20 20 21 21 21 21 21 20 18 17 16 15 14 14 14 13 13 13 12 11 10 8
31 34 35 32 32 35 34 33 34 36 37 36 36 37 37 38 39 39 41 40 37 34 30 27 25 27 30 30 32 32 31 31 30 29 31 32 30 28 25 23 21 19 17 16 14 16 20 20 20 21 23 24 24 24 23 23 23 24 25 24 24 23 23 22 21 22 22 22 22 21 20 19 18 18 17 17 17 16 16 15 14 13 12 11 9 8
34 35 35 33 34 34 32 32 34 35 34 33 34 35 36 40 40 42 43 40 39 40 38 33 30 29 25 25 32 35 32 32 29 27 32 34 30 30 28 23 21 20 17 15 15 17 20 20 22 23 23 25 24 23 23 23 23 24 24 24 24 23 23 23 23 23 23 22 22 21 20 19 18 18 18 18 18 18 17 17 16 14 12 10 9 8
39 38 37 37 36 34 34 36 36 34 32 34 35 37 40 43 42 41 40 39 42 44 41 37 36 35 30 26 31 35 34 34 31 28 32 33 30 31 30 23 22 23 20 19 19 19 20 21 22 22 22 23 23 23 22 22 21 22 24 24 24 24 23 23 23 23 23 22 21 20 20 19 19 19 19 19 19 19 18 18 16 15 13 11 10 9
42 43 42 41 38 37 39 40 39 36 34 36 38 40 41 41 40 40 39 42 45 45 42 38 38 39 33 26 29 33 33 35 35 31 30 31 31 32 30 25 24 25 22 21 22 21 21 22 21 21 20 20 22 22 21 21 20 20 22 23 23 24 23 23 23 23 23 22 21 21 20 20 19 19 19 19 19 19 18 17 16 15 14 13 12 11
43 44 43 42 38 40 43 42 40 40 39 39 40 40 40 40 42 43 44 46 44 43 42 39 40 38 26 22 27 29 30 34 35 32 28 29 30 31 30 27 26 25 23 23 23 22 22 21 20 20 20 20 20 21 21 21 20 20 21 22 22 22 22 23 23 23 22 22 21 21 20 20 19 19 19 19 19 19 18 17 16 16 15 14 13 12
43 45 46 44 40 42 46 44 42 42 42 42 42 40 39 41 44 45 45 45 42 41 39 39 41 33 23 24 25 22 26 30 30 31 29 28 30 31 30 30 29 27 25 25 24 24 22 20 19 21 22 21 20 21 22 22 22 21 21 22 22 22 22 22 22 23 22 22 22 21 21 21 20 20 20 20 20 19 18 17 17 17 16 15 14 13
47 47 47 45 42 43 46 45 43 43 43 43 43 40 38 38 41 42 43 42 40 39 38 40 37 24 21 25 21 16 20 23 24 28 30 30 33 33 31 31 31 29 27 26 25 24 22 19 20 22 22 22 21 22 24 24 24 23 23 23 24 23 23 23 23 23 22 22 22 22 21 21 21 21 21 21 20 19 19 18 18 17 16 16 14 13
49 47 43 42 42 42 45 44 42 44 44 42 42 42 37 35 37 39 40 40 39 38 38 37 29 20 21 22 17 16 19 18 20 24 28 33 37 37 34 30 30 29 28 27 25 23 21 20 21 22 22 22 23 23 24 24 24 23 24 24 25 24 24 24 24 24 24 24 23 23 22 21 21 21 21 21 21 21 20 19 19 18 17 16 14 13
51 47 43 43 43 43 44 43 41 42 42 42 43 41 34 33 37 39 38 38 36 36 36 34 27 21 21 18 14 15 18 19 21 25 29 34 39 41 39 34 29 28 28 26 23 23 22 22 22 22 22 22 23 22 22 22 22 23 24 25 25 25 25 24 24 25 25 24 24 23 22 21 21 21 21 21 21 21 21 19 19 18 18 17 15 14
52 48 46 48 45 45 45 43 43 42 40 42 42 37 35 36 39 40 38 37 36 34 34 32 27 23 19 17 14 15 17 20 24 28 31 35 39 42 41 38 32 29 29 26 24 24 24 23 23 22 22 22 22 22 21 21 23 23 24 24 25 24 24 24 24 24 24 23 23 22 21 20 20 21 21 22 22 21 19 19 19 18 18 17 16 15
54 48 45 51 49 45 45 44 46 46 42 42 41 37 39 41 40 39 39 37 37 36 33 31 29 26 19 14 15 17 20 22 27 31 33 36 38 39 40 41 36 31 28 26 27 26 24 23 23 22 22 22 22 22 21 22 23 23 23 24 23 23 23 23 23 23 23 22 22 21 20 19 19 20 21 21 21 20 19 19 19 18 18 18 17 17
57 49 39 45 54 49 46 47 49 51 47 43 43 42 41 42 41 39 38 37 36 36 32 28 28 26 19 16 17 19 21 23 28 31 33 35 36 37 40 42 39 32 27 27 29 26 22 22 23 22 22 22 23 23 23 23 23 23 23 23 23 23 23 22 22 21 21 21 20 20 20 20 19 19 20 20 20 20 20 20 20 19 19 18 18 18
58 55 37 34 52 55 50 51 51 51 51 47 46 47 44 43 43 40 39 39 38 36 31 25 20 16 18 23 22 20 21 24 27 29 31 34 35 37 41 42 38 32 28 28 27 22 21 23 24 24 24 24 24 24 24 24 24 24 24 24 24 24 23 22 22 21 21 21 20 20 20 21 21 21 21 21 21 21 22 22 21 21 21 20 20 20
60 62 45 31 48 58 52 49 49 49 52 50 47 48 46 44 43 42 42 40 38 36 33 28 17 11 20 26 22 20 22 26 29 30 31 32 34 36 39 41 37 29 27 27 24 22 24 26 26 26 25 24 24 24 24 24 24 24 24 24 24 24 23 23 23 22 22 22 21 21 22 22 23 23 23 23 23 22 23 23 22 23 23 22 23 23
62 65 55 37 42 55 54 48 48 49 49 50 49 47 48 46 42 43 42 38 38 37 36 34 25 19 24 23 19 21 26 30 32 33 32 32 33 35 38 40 38 31 27 26 26 28 29 27 26 26 25 24 24 25 26 26 25 25 24 24 24 24 23 23 23 23 23 23 23 23 24 24 24 24 24 23 23 22 22 22 22 22 22 22 23 24
63 65 62 45 32 42 53 51 49 50 49 52 53 49 50 48 43 42 40 38 38 36 36 36 30 25 23 19 19 23 28 32 34 33 33 33 33 36 37 38 40 37 32 29 29 30 29 26 25 24 24 26 27 27 28 28 27 26 25 25 24 24 24 24 24 24 24 23 24 25 25 25 24 24 24 23 22 22 21 21 20 20 20 21 22 23
67 66 68 57 33 30 47 53 52 55 54 55 56 52 51 50 46 44 42 40 39 35 35 36 31 28 24 18 18 22 26 32 35 33 33 34 34 36 39 41 40 36 34 33 32 30 27 25 24 25 26 27 28 28 28 29 29 28 27 26 25 25 26 27 26 25 24 24 25 25 24 24 24 24 23 22 22 21 20 19 19 19 19 20 21 21
72 68 68 67 50 38 49 57 56 57 57 56 55 53 52 50 49 48 45 44 42 37 37 35 28 30 27 21 21 23 24 30 34 34 35 36 37 39 41 41 37 31 33 35 33 32 31 29 28 28 29 29 28 28 27 28 29 29 29 28 26 26 26 27 27 26 25 25 25 24 23 24 23 22 22 22 21 20 19 19 19 19 19 19 19 19
72 70 68 70 62 49 50 54 54 54 57 57 55 55 54 51 50 50 48 47 45 40 41 36 30 33 33 26 25 22 22 28 33 36 38 38 39 41 40 38 34 32 35 36 35 35 35 34 33 32 33 32 30 28 27 27 28 29 28 27 27 27 26 26 27 26 24 25 24 23 22 23 23 22 22 22 21 20 20 19 19 19 18 18 17 17
70 70 69 69 67 59 52 55 58 58 58 57 55 56 55 52 51 52 51 50 47 44 43 40 36 37 35 30 29 24 23 29 33 36 39 40 42 43 40 36 34 34 35 36 37 37 37 37 35 35 35 34 32 30 28 26 27 27 27 27 27 27 26 26 26 25 25 25 25 22 21 22 23 23 23 23 22 21 20 20 19 19 17 16 15 15
70 69 67 67 68 67 62 62 65 63 58 57 56 55 55 54 53 52 52 50 48 47 44 42 41 39 33 30 32 27 25 29 32 35 39 41 42 41 38 37 37 36 35 36 36 37 38 38 37 36 37 35 34 33 31 29 28 27 27 27 26 26 26 25 25 25 25 26 25 23 22 23 24 23 24 24 22 21 20 20 19 18 16 15 14 13
70 67 65 65 67 69 68 67 67 65 62 61 58 55 54 55 55 53 51 50 48 48 46 44 43 40 35 33 32 29 28 31 34 37 39 41 41 40 40 40 39 38 37 37 37 38 39 39 38 38 38 37 36 35 34 32 31 30 29 28 27 26 25 25 25 24 25 26 26 24 25 25 25 24 24 24 22 22 21 21 19 17 15 14 13 13
68 65 65 68 69 70 70 70 69 68 66 62 58 55 53 53 53 52 51 50 49 48 47 47 45 41 39 37 34 33 32 33 34 36 37 39 39 40 41 41 41 41 42 41 41 41 40 39 39 39 38 39 39 37 36 35 34 34 32 31 29 27 26 26 24 23 23 24 26 26 27 26 26 25 25 24 23 22 22 21 20 18 16 15 14 13
68 68 69 71 72 72 71 71 70 69 67 63 61 60 58 55 52 51 51 52 51 50 49 48 47 45 43 40 36 34 33 32 31 30 32 34 35 36 37 38 40 41 41 41 41 41 40 40 40 40 39 40 40 39 37 36 36 36 34 32 31 29 28 26 24 22 21 22 26 27 27 27 27 26 25 24 24 23 22 22 21 19 17 16 15 14
71 71 71 71 70 70 70 69 69 70 71 68 65 63 62 60 57 54 55 55 53 52 51 50 49 48 44 41 38 34 32 31 29 27 28 30 31 32 34 35 36 36 37 38 39 40 40 40 40 40 40 40 40 39 37 36 37 37 36 35 33 31 29 27 26 24 22 22 25 27 27 28 28 27 26 25 25 25 24 23 22 21 19 18 17 17
73 72 71 71 70 67 67 69 70 71 73 71 66 63 63 62 61 59 58 56 52 50 48 46 47 47 42 39 38 37 35 33 30 28 29 30 29 30 31 33 33 34 34 34 34 34 35 36 37 37 37 38 38 38 37 37 37 37 37 36 35 33 31 29 28 28 25 22 22 24 27 28 29 28 27 26 26 26 25 24 23 22 21 20 20 18
74 73 72 72 69 64 64 70 72 72 73 71 67 66 65 63 62 60 59 56 52 49 46 44 45 46 44 42 41 40 39 36 33 32 31 30 30 29 29 30 31 31 32 31 30 30 30 31 34 34 35 35 36 37 38 38 38 38 38 37 36 35 32 29 27 27 26 23 22 23 26 27 28 29 29 28 28 27 26 24 24 24 23 22 21 20
75 74 73 73 71 63 62 68 72 73 73 71 70 69 68 66 63 61 59 57 54 52 49 47 47 46 45 44 43 41 40 38 35 33 31 31 32 31 30 29 30 30 31 32 31 29 27 28 29 29 30 32 34 36 37 38 39 40 39 38 37 35 32 28 25 24 23 21 20 22 24 26 28 29 29 28 28 27 25 25 24 25 25 25 24 24
74 75 74 74 71 66 64 66 69 72 73 73 73 72 70 68 65 61 60 59 57 55 53 51 50 49 47 45 44 42 40 38 34 31 31 33 34 34 33 33 33 33 33 32 30 29 28 27 26 25 26 28 30 33 35 38 39 40 40 38 37 35 31 26 23 22 20 20 20 22 23 25 26 26 25 25 24 24 24 24 25 26 27 27 27 27
72 74 75 74 71 69 67 63 63 66 66 66 71 73 71 68 66 64 63 62 59 57 55 53 52 50 47 45 44 42 39 37 33 31 34 36 36 36 37 36 35 34 33 31 30 30 28 26 25 25 24 25 26 28 31 35 37 39 39 38 37 35 29 24 22 21 20 20 21 22 22 23 23 22 21 21 20 21 22 24 26 27 28 29 30 29
71 71 74 75 72 71 70 64 60 57 52 54 64 72 74 71 69 67 63 60 60 59 57 55 52 50 49 47 46 44 41 39 37 36 38 39 37 37 37 37 36 35 34 33 32 31 29 27 27 26 25 25 25 25 27 30 33 36 36 36 36 34 29 24 22 21 20 20 21 21 21 21 21 20 20 19 19 20 23 25 27 28 29 30 30 30
68 70 73 75 74 73 72 69 62 49 44 51 57 61 69 74 72 69 64 60 61 60 56 55 55 54 52 50 48 47 44 43 42 41 42 40 37 37 37 36 37 37 36 35 33 32 31 30 29 28 27 26 26 26 26 27 29 31 32 33 34 32 29 26 24 23 22 22 22 22 22 21 20 20 20 20 21 22 24 26 28 30 31 31 31 31
64 69 72 73 73 73 72 70 63 49 45 54 52 47 60 73 71 68 66 61 60 59 55 55 56 56 54 51 50 49 47 45 44 42 42 40 38 38 38 38 39 39 38 36 34 33 33 32 31 30 29 28 27 27 27 27 27 28 29 30 32 31 30 28 27 26 25 24 24 24 22 21 20 22 23 23 24 25 25 26 28 29 31 32 32 33
63 65 70 72 72 73 71 70 66 51 44 54 53 44 53 64 62 62 65 61 59 59 58 57 57 57 55 52 51 51 49 46 45 43 42 41 40 39 39 39 40 40 39 38 36 35 34 33 32 31 29 28 28 29 29 28 28 28 28 29 30 31 31 30 29 28 27 26 26 25 24 23 23 25 25 25 26 26 26 27 28 28 29 30 31 32
67 65 67 70 72 73 71 69 67 56 50 59 61 51 51 57 59 62 65 63 60 59 59 59 59 58 57 55 53 52 51 48 47 45 44 42 41 40 40 40 40 40 40 40 38 37 36 34 33 32 30 29 29 29 30 30 29 29 29 29 30 31 32 31 30 29 29 28 27 27 26 26 26 27 27 27 27 27 27 28 29 30 30 31 31 32
65 66 66 68 69 71 69 66 65 62 61 67 67 59 56 58 60 64 66 65 63 60 58 58 59 58 57 56 54 54 52 51 49 47 45 43 43 42 42 40 40 40 41 41 40 39 38 37 35 34 32 31 30 30 31 31 30 30 30 30 30 31 32 32 31 31 30 30 29 29 28 28 29 30 30 30 30 29 29 30 31 32 33 33 33 33
55 63 67 68 68 72 73 70 69 69 69 70 69 67 65 63 61 63 65 65 65 62 58 56 57 59 59 57 56 55 54 52 51 49 46 45 44 44 42 40 40 40 41 42 41 41 40 38 37 36 34 33 31 31 32 31 31 31 31 31 31 31 32 33 33 33 33 33 33 32 31 31 32 32 32 32 32 32 31 32 32 33 34 35 35 36
47 54 62 66 69 73 74 74 75 75 75 76 77 75 72 69 67 67 66 64 64 64 62 58 57 58 59 58 56 55 54 52 51 49 47 46 46 45 44 42 41 41 41 42 41 41 41 40 38 37 36 35 33 33 32 32 32 32 32 32 32 32 32 33 34 35 36 36 36 35 34 34 34 34 35 35 35 35 34 35 35 36 36 37 38 39
46 50 54 59 66 71 72 72 75 78 79 80 81 78 75 74 73 71 69 67 65 64 63 62 60 59 59 59 57 55 53 52 51 49 48 48 47 46 45 44 42 41 41 41 41 42 42 41 40 39 38 37 36 34 33 33 32 32 32 33 33 33 32 33 35 36 37 38 38 38 37 37 37 37 38 38 38 38 38 38 38 38 39 40 41 42
43 49 53 55 61 68 73 75 78 81 83 82 80 77 76 77 77 74 71 70 69 66 64 63 62 60 59 59 57 55 53 52 52 50 49 48 48 46 46 45 44 43 41 41 41 42 42 41 41 40 39 38 37 36 35 34 33 33 33 33 34 34 34 34 35 36 38 39 40 40 40 39 39 39 39 39 40 40 41 41 42 42 42 43 44 45
37 46 54 58 62 67 73 76 78 80 81 81 80 79 79 80 79 77 74 72 71 70 67 66 65 64 61 59 57 56 54 53 52 52 51 50 48 47 47 46 45 45 43 42 41 41 41 41 41 41 40 39 38 37 37 36 35 34 34 34 34 34 35 35 36 36 38 39 40 41 41 41 41 41 41 41 42 42 43 44 44 45 46 46 47 47
34 39 47 56 63 69 73 75 76 78 80 81 82 82 82 82 80 79 77 76 74 72 70 68 67 67 65 62 59 57 55 53 52 52 52 51 50 48 48 47 47 46 46 44 43 42 42 41 41 40 40 39 38 38 38 37 37 36 35 34 35 35 36 37 37 37 38 39 40 40 41 41 41 41 42 42 43 44 44 45 45 46 48 48 48 49
30 33 40 50 58 66 72 75 77 80 81 82 83 83 83 81 80 78 77 76 75 74 72 70 69 67 66 64 61 58 56 54 53 53 52 51 50 49 49 49 48 48 47 46 45 44 43 42 41 40 40 39 38 37 37 37 37 37 36 36 36 37 38 38 39 39 39 40 40 40 41 41 41 42 43 44 45 46 45 46 47 48 49 50 50 51
Wind_Direction
224 223 225 227 230 229 227 227 225 225 224 221 224 228 228 227 227 225 218 217 215 213 216 218 219 225 227 228 231 233 232 229 231 230 227 231 232 219 207 216 217 208 194 180 178 181 187 192 191 189 191 190 184 183 185 183 180 175 175 180 178 174 173 172 172 175 179 182 184 185 188 189 189 191 194 200 207 210 212 209 201 191 182 175 167 156
225 223 223 224 228 228 225 226 224 224 225 223 223 224 226 226 228 231 226 222 221 215 216 221 221 224 226 230 234 234 231 228 228 231 229 229 230 218 201 208 225 220 193 182 185 182 185 190 189 187 188 190 187 185 188 187 183 179 177 181 181 178 177 176 177 179 182 184 186 188 189 190 190 191 195 202 209 214 216 214 207 198 189 183 177 170
226 223 225 223 223 224 222 223 222 223 224 224 225 223 224 225 223 231 232 226 221 215 217 225 225 227 229 231 231 226 225 225 227 232 231 229 230 220 208 206 221 226 200 184 188 185 186 189 187 186 186 188 190 189 190 190 186 182 181 183 184 184 183 181 182 183 185 187 188 191 192 192 193 193 198 202 207 213 214 212 207 200 194 189 185 183
225 224 228 224 220 220 219 220 221 222 222 222 223 220 221 223 221 227 236 239 230 214 218 227 228 229 231 232 230 226 227 228 228 231 228 228 231 223 214 214 222 227 212 190 188 189 188 189 188 187 189 188 189 191 192 191 190 186 185 187 187 188 188 186 187 186 186 188 189 192 194 195 195 195 199 203 207 211 210 206 203 198 194 190 187 187
224 222 224 220 215 216 217 218 218 219 221 220 217 215 214 215 220 220 226 244 241 218 218 227 230 230 230 234 235 231 231 229 228 230 227 229 236 231 219 218 221 222 218 201 189 191 192 191 191 189 190 191 189 191 192 192 193 191 190 191 192 192 191 189 190 188 186 188 189 192 196 197 196 197 200 204 207 208 205 202 200 195 191 191 190 190
223 221 221 217 213 214 215 214 215 217 219 220 215 211 211 211 216 214 211 229 235 221 218 224 232 233 233 237 236 231 229 227 228 230 228 230 236 238 232 228 224 216 217 208 191 192 196 195 195 192 191 193 192 192 193 193 194 196 195 195 197 196 193 192 191 189 188 189 192 195 197 197 197 199 202 203 205 204 201 199 196 194 193 195 196 196
222 221 220 217 215 215 215 213 213 215 218 220 215 211 213 214 215 213 209 219 232 229 220 222 229 231 231 232 231 231 229 228 232 231 229 231 232 237 240 239 235 223 219 213 194 191 199 198 196 196 195 194 195 195 195 196 197 199 199 198 200 198 195 193 190 188 190 191 194 198 199 200 199 200 201 202 204 202 199 197 196 196 197 200 201 201
222 223 220 215 215 217 217 216 213 213 216 218 214 212 214 216 217 216 214 215 224 231 225 225 231 233 235 233 228 230 229 228 234 230 226 230 230 232 235 237 239 233 225 218 201 193 199 199 198 200 200 198 198 198 197 198 200 201 201 201 201 200 197 193 188 188 191 193 196 200 200 200 199 199 199 199 202 202 200 200 200 201 203 205 206 206
225 226 225 218 218 221 220 219 218 217 219 219 215 214 214 217 219 221 222 220 224 232 231 226 230 235 236 230 226 228 226 227 232 226 223 228 230 232 231 230 236 238 232 224 210 204 204 200 199 202 202 201 199 200 201 201 203 202 201 202 202 201 198 192 189 189 192 195 198 201 201 200 199 197 198 199 201 202 202 203 205 207 209 210 210 209
225 226 226 221 219 222 221 221 223 223 223 222 218 215 216 219 219 220 224 224 228 234 232 225 225 233 231 214 220 228 227 231 235 226 224 228 231 232 227 221 229 235 234 230 219 215 212 205 203 203 203 203 200 201 204 205 206 204 201 201 201 199 198 193 191 192 194 197 199 200 201 201 199 198 200 201 203 204 205 207 209 211 214 216 216 214
224 223 224 221 216 218 220 219 222 221 219 220 217 214 217 219 218 221 224 224 228 233 232 226 224 232 233 216 218 229 231 237 240 231 228 231 232 230 225 216 220 225 221 219 218 216 217 213 208 205 203 205 203 203 207 208 209 207 203 202 200 198 198 195 194 195 196 198 200 202 203 201 200 202 203 204 205 207 208 211 213 215 218 222 223 221
224 223 222 220 214 214 219 219 219 219 217 217 217 216 218 219 218 220 222 223 229 234 234 230 227 231 237 230 225 230 232 236 241 239 231 231 232 229 227 219 215 220 216 211 214 214 217 219 214 207 204 206 208 207 209 211 211 210 206 204 201 199 198 197 197 198 199 200 201 203 204 203 203 205 208 210 211 211 212 214 216 218 222 225 227 226
226 227 225 223 215 215 221 220 218 218 218 218 218 218 217 217 217 218 221 224 231 236 235 233 234 236 241 244 238 234 234 235 241 245 234 226 231 231 228 222 217 219 217 212 214 214 216 219 216 210 204 204 208 209 211 212 211 210 209 207 205 202 201 200 200 201 202 203 204 205 204 203 204 206 211 215 217 218 217 218 219 221 224 227 229 229
227 228 227 224 217 218 223 221 218 218 219 220 221 220 217 215 217 219 222 227 233 238 238 236 238 242 247 250 247 241 240 241 242 247 241 227 229 233 228 223 220 219 216 212 213 215 216 217 215 213 206 202 203 205 209 211 210 208 207 207 206 205 204 204 204 206 207 208 209 209 207 205 204 206 212 217 221 223 223 222 222 223 226 229 230 230
227 227 227 225 219 219 226 225 221 221 221 221 223 224 221 218 219 221 224 229 234 237 240 240 239 246 251 250 252 244 239 240 233 238 241 230 225 232 231 222 219 222 220 214 212 215 215 213 215 216 210 203 201 203 206 209 209 207 206 207 207 207 206 206 207 210 211 213 215 215 213 210 208 209 213 218 223 226 228 229 229 229 230 232 233 233
228 229 230 230 225 222 228 229 225 225 224 223 225 226 224 221 222 225 226 230 234 236 239 244 245 248 250 249 248 238 235 238 227 225 234 231 227 233 237 228 221 224 224 216 210 213 214 212 216 218 213 207 205 205 206 208 209 209 208 208 209 209 210 209 209 211 214 216 219 219 218 216 214 214 216 220 224 227 230 231 232 234 236 237 239 239
228 227 227 230 226 221 225 229 229 229 230 228 229 229 228 223 224 226 227 229 233 234 235 241 247 246 243 244 237 227 227 230 222 216 222 226 226 230 235 234 227 225 227 219 210 212 214 213 217 220 217 212 210 208 207 207 209 210 210 210 211 212 213 213 213 214 217 219 222 222 221 219 217 217 218 220 224 227 229 230 232 234 238 241 243 243
227 226 226 227 224 220 221 224 229 229 230 232 232 232 230 226 225 226 227 230 234 235 234 236 244 246 240 240 235 217 211 210 209 212 217 222 224 226 230 235 232 226 226 219 210 212 216 216 218 222 221 218 215 211 208 207 208 209 210 210 212 214 215 217 218 220 222 224 226 226 225 223 220 219 219 221 225 229 230 232 233 234 235 238 242 245
223 223 225 227 223 221 219 218 224 226 223 228 231 230 230 228 228 228 226 228 232 234 236 234 240 244 238 235 231 211 204 207 207 211 216 221 225 224 226 233 236 230 225 219 212 212 218 221 221 223 223 222 220 214 210 210 210 210 210 211 213 215 217 219 221 223 225 227 228 229 230 228 226 226 226 227 229 232 234 236 238 238 238 238 240 242
220 219 221 229 226 222 219 216 221 225 220 221 226 227 227 227 228 230 228 228 230 232 235 236 239 242 237 234 229 210 203 208 210 213 218 221 224 222 222 229 234 233 228 224 217 210 214 223 223 222 223 223 222 218 214 214 214 213 213 213 215 217 219 221 223 225 227 230 231 233 234 235 235 235 236 237 238 239 240 242 243 245 246 245 244 243
218 217 211 227 230 222 218 216 219 225 223 219 222 224 222 221 222 226 226 225 228 230 232 232 236 245 244 237 228 212 201 203 208 213 217 220 220 218 220 226 232 231 227 225 219 210 214 223 222 221 221 221 222 221 219 218 217 216 216 217 219 220 220 221 223 226 229 232 233 235 237 239 239 240 241 242 243 244 246 247 248 250 252 253 253 251
215 215 205 218 231 221 215 216 217 225 227 223 224 226 224 221 219 221 223 220 221 224 227 224 214 225 240 231 219 213 205 201 208 213 215 219 221 217 219 225 230 230 227 226 224 219 218 221 222 221 220 220 221 221 222 222 221 221 221 222 224 223 222 222 223 226 229 232 234 236 238 240 241 243 245 246 248 250 251 253 254 256 257 259 259 258
214 215 206 210 229 222 215 216 215 220 228 227 225 226 228 226 222 222 224 222 220 219 222 222 210 215 230 218 203 210 206 199 206 212 213 215 218 217 217 223 229 232 230 227 226 225 220 218 221 221 218 218 219 219 220 222 222 222 223 226 227 226 226 227 228 229 231 233 235 237 239 242 244 247 249 251 254 256 257 259 260 262 263 263 262 261
214 216 210 208 221 224 220 220 216 215 223 227 224 223 226 226 225 226 227 227 225 220 221 222 215 217 219 199 193 207 204 201 205 210 213 213 215 216 216 219 226 229 227 225 226 228 225 221 223 223 219 218 219 219 221 222 222 222 222 226 228 228 230 232 233 236 237 238 239 239 241 243 246 249 251 254 256 258 260 262 265 267 269 269 268 265
211 213 212 209 207 215 220 222 219 214 217 225 224 222 224 224 225 226 226 228 228 224 224 225 223 221 208 183 192 204 198 200 204 207 212 212 213 215 215 219 226 227 224 223 223 225 226 225 226 227 227 226 227 226 225 225 224 222 221 223 227 232 236 237 237 239 242 244 245 245 246 246 247 250 252 254 255 257 260 263 267 271 273 274 273 270
210 210 211 211 208 211 218 222 221 217 217 222 225 223 223 223 224 225 224 225 225 222 222 223 222 223 211 185 186 194 193 200 204 205 209 212 214 217 221 226 231 229 225 224 223 223 225 225 224 225 229 232 234 233 230 228 226 223 220 221 226 232 239 243 244 244 246 247 249 250 251 252 252 252 253 254 256 257 260 265 270 274 276 276 276 273
210 210 210 210 209 212 219 223 224 222 220 221 224 226 224 221 223 225 224 224 223 221 221 218 214 219 218 198 185 189 192 197 202 206 210 212 215 222 229 232 231 228 225 225 224 222 224 226 224 224 226 229 233 235 232 229 228 226 225 226 231 235 240 246 249 250 250 251 251 251 253 254 254 253 253 255 256 257 261 267 272 275 277 276 274 272
211 212 211 209 208 209 213 219 222 223 221 220 223 227 226 223 222 224 224 223 222 220 220 218 215 219 219 199 187 195 200 198 201 207 211 214 218 223 229 230 229 228 225 224 224 223 224 226 226 225 227 229 231 234 234 232 230 227 227 230 236 239 240 243 246 248 249 250 251 251 251 252 251 249 251 253 256 258 262 268 272 275 275 272 269 267
211 212 212 211 211 210 212 216 220 222 221 220 221 224 227 227 224 224 225 225 224 222 220 219 218 221 220 201 192 202 207 201 200 204 210 216 220 222 225 225 226 228 228 226 225 224 225 228 229 228 229 230 232 234 236 237 237 235 233 233 236 240 242 241 241 243 244 246 248 249 248 247 246 245 247 251 255 258 262 267 271 272 271 266 262 259
209 210 211 212 212 213 215 217 218 220 220 219 220 220 224 228 227 226 226 226 226 224 222 222 219 218 219 210 201 202 206 205 201 204 212 217 216 218 221 223 223 224 227 228 227 226 227 230 231 231 230 231 233 235 238 240 242 243 243 242 241 243 245 244 241 240 240 241 243 245 244 244 242 241 243 247 251 255 259 264 268 268 264 258 253 250
209 210 210 211 211 211 215 218 219 221 221 219 219 218 219 224 227 227 227 227 227 225 223 224 222 218 218 216 208 202 207 213 208 206 213 217 217 220 222 221 221 222 225 227 227 228 229 230 232 232 232 232 234 237 240 241 243 244 244 245 247 248 249 249 247 244 242 240 239 240 241 241 241 240 241 243 247 250 254 259 262 260 257 252 248 244
210 210 209 210 210 209 212 216 219 222 223 221 220 219 219 220 222 224 225 226 226 226 224 223 223 222 219 219 214 205 208 219 218 210 212 216 219 225 225 224 225 226 229 231 231 231 232 232 233 233 232 233 235 238 241 243 244 244 244 245 248 251 252 252 252 251 247 241 237 237 237 238 239 239 239 241 244 247 250 253 255 254 253 251 247 242
209 210 209 211 211 210 211 215 217 222 224 223 221 221 222 222 221 222 224 224 224 224 223 222 222 223 220 218 218 210 205 212 217 216 215 215 217 220 224 227 230 231 232 232 232 233 235 235 235 235 234 235 237 239 242 244 245 246 245 245 248 251 253 254 256 254 249 243 238 236 236 237 238 239 240 241 242 245 248 250 251 251 250 248 246 242
209 209 210 211 210 210 212 214 215 220 223 223 222 222 223 223 223 224 226 227 226 225 225 224 224 224 222 219 220 217 208 203 208 215 219 220 219 218 220 225 228 231 233 233 234 235 237 239 241 241 240 239 239 240 242 244 246 247 248 249 250 252 254 258 260 256 250 244 241 239 238 238 239 240 241 243 242 244 247 249 250 250 249 248 246 243
209 209 211 211 209 209 212 215 215 218 221 221 222 224 224 224 224 225 226 227 226 225 224 223 223 223 222 220 219 218 213 207 207 214 220 224 226 224 223 225 226 230 233 235 237 238 238 241 243 244 244 244 242 241 241 243 246 248 249 250 251 253 256 259 259 254 249 244 240 240 239 240 240 241 242 243 243 243 246 247 249 251 252 251 248 244
209 210 211 211 209 208 212 215 216 217 220 221 223 223 223 224 224 225 226 227 225 224 222 220 221 221 220 218 217 217 215 212 211 214 217 222 228 229 228 229 229 230 231 233 235 236 236 239 241 243 244 242 241 241 241 241 244 246 249 250 251 254 258 257 252 248 246 243 241 241 240 239 239 241 242 242 241 243 246 248 249 250 252 252 251 247
210 211 212 212 211 210 212 215 216 216 219 222 223 223 223 223 223 223 225 225 225 224 222 220 219 219 217 216 217 216 215 215 214 215 216 218 223 227 228 228 228 229 230 232 233 234 235 236 238 239 239 237 238 238 238 239 241 244 247 250 252 255 256 251 245 243 241 239 239 240 238 239 241 243 244 243 243 245 247 247 247 248 250 253 254 252
211 211 213 213 212 211 213 216 217 217 219 222 224 224 224 223 224 223 224 224 224 224 223 221 219 219 218 218 219 217 217 218 217 218 218 217 218 222 226 229 230 230 231 232 233 234 234 233 234 235 234 233 234 234 235 238 240 243 246 249 251 254 252 244 241 243 240 236 237 238 236 236 239 241 242 243 243 244 245 245 246 248 251 254 257 257
212 212 213 213 213 212 212 214 216 217 218 221 223 225 225 224 224 223 223 225 226 225 224 223 221 221 220 220 220 219 219 220 222 221 220 218 217 220 224 230 233 234 234 233 233 234 235 234 233 233 233 233 233 234 236 237 238 242 245 247 248 250 247 241 237 238 239 238 238 236 234 234 235 236 238 239 240 242 244 247 250 252 255 257 259 258
214 213 213 213 214 214 213 214 215 216 218 220 222 225 225 224 224 224 223 224 226 226 225 224 223 221 219 219 220 221 220 221 223 222 220 219 219 221 223 227 231 234 235 235 234 234 235 235 233 233 234 235 236 237 237 237 238 240 242 243 244 244 243 240 236 235 236 239 240 239 238 237 238 243 245 246 247 249 253 257 259 261 262 262 262 260
214 215 214 213 214 215 215 214 214 214 217 219 220 224 226 224 225 227 225 223 225 225 224 223 222 221 219 219 220 221 220 220 222 222 220 220 221 222 223 225 228 232 234 235 236 236 237 236 236 235 235 235 236 237 238 239 240 240 240 240 240 241 241 240 238 236 237 238 241 243 243 243 247 251 253 255 257 260 263 264 265 265 264 263 263 262
213 215 215 215 214 215 216 216 214 212 217 220 217 220 226 225 225 227 225 222 224 225 224 224 223 221 221 220 220 221 221 221 221 222 221 220 220 222 223 224 226 229 232 233 234 236 237 239 239 239 238 237 237 237 238 239 240 241 242 241 239 239 240 240 240 240 240 241 243 245 246 248 252 254 256 259 263 265 266 265 265 264 263 262 262 264
215 215 216 216 216 216 218 218 215 212 216 221 219 218 222 223 223 223 223 222 224 225 225 225 224 223 222 221 220 221 223 223 222 221 220 221 222 223 224 224 225 227 230 232 232 234 236 238 239 240 239 239 240 240 240 241 240 242 244 243 240 239 240 240 240 242 244 245 246 248 249 250 252 255 259 262 264 265 266 266 265 265 265 267 269 271
219 217 217 217 216 216 218 220 218 215 216 220 220 220 222 223 222 222 222 222 223 224 225 225 225 225 224 222 221 222 224 224 223 222 220 221 223 223 224 224 225 226 229 231 231 232 234 235 237 238 238 239 241 242 242 243 243 242 243 244 242 241 241 241 240 241 243 245 246 247 249 251 253 257 260 262 263 264 265 265 265 265 267 270 274 276
222 220 219 218 218 217 217 219 220 219 219 220 221 223 224 225 224 223 223 223 224 225 226 226 226 226 225 223 221 222 223 224 224 223 221 221 223 224 224 225 225 226 229 230 231 232 233 233 234 235 236 236 238 240 241 242 243 244 244 244 243 241 241 241 240 238 240 243 245 246 247 250 253 255 257 259 261 263 264 264 265 265 267 270 272 274
221 219 219 220 220 219 219 220 222 222 221 221 222 223 224 226 226 226 225 225 225 226 227 228 228 228 226 224 222 221 223 224 226 225 222 221 223 223 223 224 225 227 229 231 231 232 233 233 233 233 234 235 236 237 239 240 242 243 244 244 243 241 240 240 240 239 239 241 244 245 246 247 249 251 253 256 259 262 264 265 265 266 267 269 271 273
221 220 220 221 222 220 219 221 223 223 223 222 223 223 225 226 226 226 225 225 226 227 227 227 228 229 229 227 225 223 223 225 227 227 225 224 223 224 224 225 225 227 229 231 232 233 234 233 233 233 234 235 235 236 238 239 241 242 242 243 243 242 240 240 240 240 241 242 244 246 247 247 247 249 252 255 258 261 263 264 265 266 267 268 270 272
222 222 221 222 223 222 220 220 222 223 223 223 223 225 227 228 228 227 227 226 226 227 228 228 229 230 230 228 226 225 224 225 227 228 228 227 226 226 225 226 226 227 228 230 232 233 234 235 235 235 235 236 237 238 239 239 240 241 242 242 243 242 241 240 240 240 241 242 243 246 247 248 249 251 253 255 257 259 260 261 263 264 265 267 268 270
225 224 223 224 225 225 223 222 223 224 224 225 226 227 227 228 229 229 229 229 228 229 230 231 231 232 232 230 228 226 225 225 227 228 229 230 230 229 229 228 228 228 227 228 230 233 234 235 236 237 237 237 238 239 240 239 239 240 241 242 243 243 243 242 242 243 243 243 244 246 248 249 251 252 254 255 256 257 258 259 260 261 263 265 267 270
232 229 227 228 229 228 226 225 225 225 226 226 227 228 228 227 228 229 230 230 230 231 231 232 232 233 234 234 232 229 228 227 227 228 229 230 231 231 231 231 230 230 228 228 229 231 233 234 236 237 238 238 238 239 240 240 238 238 240 242 244 245 246 246 246 246 246 247 248 249 250 252 252 253 254 254 255 255 256 257 259 260 261 263 265 267
234 232 231 231 232 231 230 230 228 227 227 227 228 228 228 228 229 230 230 231 232 232 233 233 233 234 235 236 234 232 230 229 228 228 228 229 231 232 233 233 232 232 231 230 229 230 231 233 235 237 238 238 238 239 240 240 239 237 238 240 242 244 246 248 248 248 248 249 250 251 252 253 253 254 255 255 256 257 257 257 258 259 261 262 263 265
Height
5851 5852 5853 5856 5859 5861 5863 5865 5867 5869 5871 5873 5874 5876 5877 5879 5880 5880 5881 5882 5883 5884 5885 5886 5888 5889 5889 5890 5891 5892 5892 5892 5893 5893 5893 5894 5893 5893 5893 5893 5893 5894 5893 5892 5892 5893 5894 5896 5897 5898 5900 5901 5903 5904 5906 5907 5909 5910 5911 5913 5914 5915 5917 5918 5919 5921 5923 5924 5926 5927 5928 5930 5931 5932 5933 5934 5935 5935 5936 5937 5938 5938 5939 5940 5940 5941
5848 5850 5853 5855 5857 5859 5861 5862 5864 5866 5868 5870 5871 5873 5875 5877 5879 5879 5879 5881 5882 5882 5884 5884 5886 5887 5887 5888 5890 5891 5891 5891 5891 5891 5892 5892 5892 5893 5893 5892 5893 5894 5893 5891 5891 5892 5893 5895 5896 5898 5899 5900 5903 5904 5905 5907 5908 5909 5911 5913 5914 5915 5916 5917 5919 5921 5922 5924 5926 5927 5928 5930 5931 5932 5933 5934 5935 5935 5936 5937 5938 5939 5940 5940 5941 5941
5846 5850 5852 5853 5854 5855 5857 5858 5861 5863 5865 5867 5868 5871 5873 5875 5878 5878 5877 5878 5879 5881 5882 5883 5883 5884 5885 5886 5887 5888 5889 5890 5890 5890 5890 5891 5891 5891 5891 5891 5892 5893 5891 5889 5890 5891 5893 5894 5895 5897 5898 5900 5901 5903 5905 5906 5908 5909 5911 5912 5914 5915 5916 5917 5918 5920 5922 5924 5925 5927 5928 5929 5931 5932 5933 5934 5934 5935 5936 5937 5938 5939 5940 5940 5941 5941
5846 5849 5849 5849 5850 5851 5853 5855 5857 5859 5861 5863 5865 5868 5871 5874 5877 5877 5877 5877 5877 5880 5881 5880 5881 5882 5883 5883 5884 5885 5887 5888 5888 5889 5889 5889 5890 5889 5890 5890 5891 5892 5891 5889 5889 5891 5893 5894 5895 5896 5897 5899 5900 5902 5904 5906 5908 5909 5910 5912 5913 5914 5915 5916 5918 5920 5922 5923 5925 5927 5928 5929 5930 5931 5932 5933 5934 5934 5935 5936 5937 5939 5940 5941 5941 5942
5843 5845 5844 5844 5846 5848 5850 5851 5853 5855 5857 5859 5862 5865 5868 5872 5873 5876 5878 5877 5876 5878 5878 5878 5879 5879 5880 5881 5882 5883 5886 5887 5886 5887 5888 5888 5888 5888 5889 5890 5890 5892 5890 5887 5888 5890 5892 5893 5894 5896 5897 5898 5900 5901 5904 5905 5907 5908 5910 5911 5912 5913 5914 5916 5917 5919 5921 5923 5924 5925 5927 5928 5929 5930 5931 5932 5933 5933 5935 5936 5937 5939 5940 5941 5942 5942
5839 5839 5839 5841 5843 5844 5846 5848 5850 5852 5854 5856 5859 5862 5865 5868 5869 5872 5876 5876 5874 5874 5875 5876 5876 5877 5879 5880 5880 5882 5883 5884 5884 5884 5886 5886 5886 5885 5886 5887 5888 5888 5887 5886 5886 5888 5891 5893 5894 5895 5897 5898 5900 5901 5903 5904 5906 5907 5909 5910 5912 5913 5914 5915 5917 5919 5921 5922 5923 5924 5925 5927 5928 5928 5929 5931 5932 5933 5934 5936 5937 5939 5940 5941 5942 5942
5834 5835 5837 5839 5840 5841 5842 5844 5846 5849 5851 5852 5856 5860 5862 5863 5864 5867 5870 5872 5872 5871 5872 5873 5872 5875 5877 5877 5878 5880 5881 5882 5881 5881 5884 5884 5885 5885 5883 5884 5885 5885 5886 5886 5884 5886 5891 5893 5894 5895 5896 5898 5899 5900 5902 5903 5905 5906 5908 5910 5911 5913 5914 5915 5917 5918 5920 5921 5922 5923 5924 5925 5926 5928 5929 5930 5932 5933 5934 5935 5936 5938 5939 5940 5941 5942
5832 5833 5833 5835 5837 5838 5839 5841 5843 5845 5846 5849 5853 5856 5857 5859 5861 5863 5865 5867 5868 5868 5869 5870 5871 5873 5873 5874 5876 5877 5879 5880 5878 5878 5882 5882 5883 5884 5883 5882 5883 5883 5885 5884 5880 5883 5890 5892 5893 5894 5895 5896 5898 5899 5901 5903 5904 5906 5907 5909 5910 5912 5913 5914 5916 5917 5919 5920 5921 5922 5923 5925 5926 5927 5928 5930 5931 5932 5933 5934 5936 5937 5938 5939 5940 5941
5830 5829 5830 5833 5834 5834 5837 5840 5842 5842 5844 5847 5850 5852 5854 5856 5858 5860 5861 5862 5864 5864 5864 5868 5870 5870 5870 5873 5875 5875 5875 5875 5874 5876 5879 5880 5881 5882 5882 5882 5881 5882 5883 5881 5879 5884 5890 5891 5891 5893 5894 5895 5897 5899 5901 5902 5903 5905 5906 5908 5910 5911 5913 5914 5915 5916 5918 5919 5920 5921 5923 5924 5925 5927 5928 5929 5930 5931 5932 5933 5935 5936 5937 5938 5940 5941
5825 5825 5827 5829 5830 5832 5836 5838 5838 5840 5843 5846 5848 5850 5852 5853 5854 5856 5856 5859 5862 5859 5859 5864 5867 5867 5868 5870 5871 5871 5872 5871 5872 5875 5877 5877 5879 5881 5881 5881 5881 5881 5881 5880 5882 5887 5890 5890 5891 5891 5893 5895 5896 5898 5900 5901 5902 5904 5905 5907 5909 5911 5912 5913 5914 5915 5917 5918 5920 5921 5922 5924 5925 5926 5927 5928 5929 5930 5931 5932 5933 5935 5936 5938 5939 5940
5818 5820 5822 5823 5826 5830 5832 5833 5833 5836 5840 5842 5844 5846 5847 5847 5850 5852 5854 5857 5857 5852 5855 5861 5863 5864 5864 5866 5868 5868 5869 5870 5871 5872 5874 5875 5877 5879 5880 5879 5880 5882 5882 5883 5885 5888 5890 5890 5890 5891 5893 5895 5896 5898 5899 5901 5902 5904 5905 5907 5908 5910 5911 5913 5914 5915 5916 5918 5919 5921 5922 5923 5925 5926 5926 5927 5928 5929 5930 5931 5933 5934 5935 5936 5937 5939
5812 5814 5816 5818 5823 5826 5826 5827 5830 5833 5836 5837 5839 5840 5842 5845 5848 5849 5851 5852 5849 5846 5852 5858 5860 5861 5860 5862 5866 5867 5868 5869 5869 5870 5872 5874 5875 5878 5880 5878 5878 5880 5881 5883 5885 5887 5889 5890 5891 5892 5893 5894 5896 5897 5899 5901 5902 5904 5905 5906 5908 5909 5911 5912 5913 5914 5916 5917 5919 5920 5921 5923 5924 5925 5926 5927 5927 5928 5930 5931 5932 5933 5934 5935 5936 5937
5809 5810 5813 5816 5821 5822 5821 5823 5826 5829 5831 5832 5834 5836 5838 5841 5843 5844 5845 5845 5844 5846 5851 5856 5857 5857 5857 5861 5864 5865 5866 5867 5867 5869 5870 5873 5874 5875 5876 5876 5877 5878 5879 5882 5885 5886 5887 5889 5891 5892 5892 5893 5895 5897 5898 5900 5901 5903 5905 5906 5908 5909 5911 5912 5913 5914 5915 5917 5918 5919 5921 5922 5923 5925 5925 5926 5927 5928 5929 5930 5931 5932 5933 5934 5935 5936
5805 5806 5808 5812 5817 5817 5816 5819 5822 5824 5827 5828 5830 5832 5835 5837 5838 5839 5841 5842 5844 5846 5850 5853 5854 5854 5856 5859 5861 5863 5865 5865 5867 5868 5868 5872 5873 5871 5872 5874 5876 5877 5878 5880 5883 5885 5887 5889 5891 5891 5891 5892 5893 5895 5897 5898 5900 5902 5904 5906 5907 5909 5910 5911 5913 5914 5915 5916 5917 5918 5920 5921 5923 5924 5924 5925 5926 5927 5928 5929 5930 5931 5932 5933 5934 5935
5798 5799 5803 5808 5813 5814 5813 5815 5819 5821 5823 5825 5828 5830 5833 5835 5836 5838 5840 5842 5844 5846 5849 5850 5851 5852 5854 5856 5858 5860 5862 5863 5865 5866 5866 5869 5870 5868 5870 5873 5875 5876 5877 5878 5880 5883 5886 5888 5889 5890 5891 5892 5892 5893 5895 5897 5899 5901 5902 5904 5906 5907 5909 5911 5912 5913 5915 5916 5916 5917 5919 5920 5922 5923 5924 5925 5926 5927 5928 5929 5929 5930 5931 5932 5933 5934
5792 5796 5802 5806 5810 5812 5812 5814 5817 5818 5820 5823 5826 5827 5830 5834 5836 5838 5840 5841 5844 5846 5847 5847 5848 5851 5853 5853 5855 5858 5859 5860 5862 5864 5864 5866 5867 5868 5868 5871 5874 5875 5877 5877 5878 5882 5885 5887 5888 5889 5890 5891 5891 5892 5893 5895 5898 5900 5901 5903 5905 5906 5908 5909 5911 5912 5914 5915 5916 5917 5918 5920 5921 5922 5923 5924 5925 5926 5927 5928 5929 5930 5930 5931 5932 5933
5788 5793 5799 5800 5803 5807 5809 5811 5814 5815 5818 5821 5822 5824 5830 5834 5835 5836 5838 5840 5841 5843 5844 5845 5846 5849 5850 5851 5853 5855 5856 5857 5859 5861 5862 5862 5864 5867 5867 5868 5872 5875 5876 5876 5876 5880 5884 5885 5887 5888 5890 5891 5891 5892 5894 5895 5897 5898 5900 5901 5903 5905 5907 5908 5910 5911 5912 5913 5915 5916 5917 5919 5920 5921 5923 5923 5924 5925 5926 5928 5929 5929 5930 5931 5932 5932
5784 5789 5793 5793 5797 5801 5804 5808 5809 5812 5816 5816 5818 5824 5829 5830 5830 5832 5835 5836 5838 5839 5842 5844 5845 5846 5847 5849 5851 5852 5853 5854 5856 5857 5859 5859 5861 5864 5866 5867 5870 5874 5875 5874 5875 5879 5882 5884 5885 5887 5889 5890 5891 5892 5894 5894 5895 5896 5898 5900 5902 5904 5906 5908 5909 5910 5911 5913 5914 5915 5917 5918 5919 5920 5921 5922 5923 5925 5926 5927 5928 5929 5930 5931 5931 5932
5777 5783 5787 5787 5791 5795 5799 5803 5803 5805 5810 5812 5816 5821 5822 5823 5826 5828 5831 5833 5835 5836 5839 5842 5844 5845 5846 5848 5849 5850 5851 5851 5853 5854 5855 5857 5859 5861 5865 5866 5867 5871 5873 5873 5874 5876 5880 5883 5885 5886 5888 5890 5891 5892 5893 5893 5894 5896 5897 5899 5901 5903 5905 5906 5908 5909 5911 5912 5913 5915 5916 5917 5919 5920 5921 5922 5923 5924 5925 5926 5927 5928 5929 5930 5931 5931
5773 5779 5783 5783 5785 5789 5792 5795 5796 5798 5804 5808 5811 5813 5815 5819 5822 5825 5827 5831 5833 5835 5838 5841 5842 5843 5845 5846 5847 5848 5849 5850 5851 5852 5852 5855 5857 5859 5863 5864 5865 5868 5870 5872 5873 5874 5878 5882 5883 5885 5887 5888 5890 5891 5892 5893 5894 5896 5897 5899 5900 5902 5904 5905 5907 5909 5910 5911 5913 5914 5915 5917 5918 5919 5920 5921 5922 5923 5924 5925 5926 5927 5928 5929 5930 5930
5767 5772 5780 5779 5776 5780 5784 5788 5793 5795 5799 5803 5805 5806 5810 5814 5817 5821 5824 5827 5830 5833 5836 5839 5842 5844 5843 5843 5844 5846 5847 5848 5849 5850 5851 5853 5855 5857 5860 5861 5863 5866 5869 5871 5871 5872 5876 5880 5882 5883 5885 5886 5888 5889 5891 5892 5894 5895 5896 5898 5899 5901 5903 5905 5906 5908 5909 5911 5912 5913 5914 5915 5916 5917 5918 5920 5921 5922 5922 5923 5924 5925 5926 5927 5928 5929
5759 5764 5775 5773 5768 5774 5782 5787 5793 5793 5795 5800 5802 5804 5807 5810 5814 5817 5818 5822 5826 5830 5833 5836 5841 5843 5839 5838 5842 5844 5845 5846 5847 5848 5849 5851 5853 5856 5859 5859 5861 5865 5867 5867 5867 5869 5873 5877 5879 5881 5883 5885 5887 5889 5890 5891 5892 5894 5895 5897 5898 5900 5902 5904 5905 5907 5908 5909 5911 5912 5913 5914 5915 5916 5917 5918 5919 5920 5921 5921 5922 5923 5924 5925 5926 5926
5752 5757 5766 5767 5764 5771 5779 5784 5788 5789 5791 5795 5799 5802 5804 5807 5812 5814 5816 5820 5823 5826 5829 5832 5837 5838 5835 5837 5841 5841 5842 5844 5845 5846 5848 5850 5852 5854 5857 5859 5861 5863 5865 5865 5865 5869 5873 5875 5877 5879 5881 5883 5885 5887 5888 5889 5891 5893 5895 5896 5897 5899 5901 5903 5904 5905 5907 5908 5910 5910 5911 5912 5913 5914 5915 5916 5917 5918 5918 5919 5920 5921 5922 5923 5923 5924
5745 5750 5759 5763 5763 5768 5774 5777 5781 5784 5786 5787 5791 5797 5800 5804 5809 5812 5816 5819 5821 5824 5827 5829 5833 5835 5833 5836 5838 5838 5839 5841 5843 5845 5847 5849 5851 5853 5856 5858 5858 5860 5862 5864 5865 5867 5871 5873 5876 5878 5880 5881 5883 5884 5886 5888 5890 5891 5893 5895 5896 5898 5900 5901 5902 5904 5905 5907 5908 5908 5909 5910 5911 5912 5913 5914 5915 5915 5916 5917 5918 5919 5919 5920 5920 5920
5734 5742 5751 5756 5759 5762 5766 5768 5771 5776 5778 5780 5785 5791 5795 5800 5805 5808 5813 5815 5817 5822 5825 5827 5831 5832 5831 5834 5835 5835 5838 5840 5842 5844 5846 5848 5850 5851 5853 5853 5853 5856 5860 5863 5864 5866 5868 5871 5874 5877 5879 5880 5881 5883 5885 5886 5888 5890 5892 5894 5896 5897 5898 5899 5900 5902 5904 5905 5906 5907 5908 5909 5909 5910 5911 5912 5912 5913 5914 5915 5916 5916 5917 5917 5917 5917
5727 5734 5741 5748 5754 5757 5759 5762 5765 5770 5774 5776 5782 5787 5791 5797 5800 5804 5808 5810 5813 5818 5821 5824 5828 5828 5829 5832 5833 5834 5836 5838 5841 5843 5845 5846 5848 5848 5848 5848 5851 5856 5860 5861 5863 5865 5867 5870 5872 5874 5876 5877 5879 5881 5883 5885 5887 5888 5890 5892 5894 5895 5896 5897 5898 5900 5902 5902 5903 5905 5906 5907 5908 5909 5909 5910 5911 5911 5912 5913 5913 5914 5914 5914 5914 5914
5722 5728 5733 5741 5749 5753 5756 5760 5763 5767 5771 5774 5778 5781 5786 5792 5796 5799 5802 5806 5810 5814 5817 5820 5824 5824 5826 5830 5832 5833 5835 5837 5839 5841 5842 5844 5845 5844 5845 5848 5852 5856 5858 5859 5862 5864 5865 5867 5869 5871 5873 5874 5876 5878 5881 5883 5885 5887 5889 5891 5892 5893 5894 5895 5896 5898 5900 5900 5901 5903 5905 5905 5906 5907 5907 5908 5909 5910 5911 5911 5911 5912 5912 5912 5912 5912
5717 5722 5727 5735 5742 5746 5749 5753 5755 5759 5765 5771 5775 5777 5782 5787 5791 5794 5797 5801 5806 5810 5813 5817 5820 5820 5823 5827 5830 5830 5832 5834 5835 5838 5840 5841 5842 5842 5844 5849 5852 5854 5856 5858 5860 5861 5863 5865 5867 5869 5871 5872 5874 5876 5878 5881 5883 5885 5888 5889 5890 5891 5892 5893 5894 5896 5898 5898 5899 5901 5903 5903 5904 5904 5905 5906 5907 5908 5909 5909 5909 5909 5910 5910 5910 5910
5709 5716 5724 5731 5736 5739 5742 5745 5748 5754 5760 5766 5769 5773 5777 5782 5786 5790 5793 5799 5803 5807 5811 5814 5816 5819 5822 5825 5828 5829 5830 5832 5833 5836 5837 5837 5839 5842 5845 5848 5850 5852 5854 5856 5858 5860 5862 5863 5865 5867 5869 5871 5873 5874 5876 5878 5880 5882 5885 5886 5887 5888 5889 5891 5892 5893 5895 5896 5897 5899 5900 5900 5901 5902 5902 5903 5905 5906 5906 5906 5907 5907 5907 5908 5908 5908
5703 5711 5718 5724 5730 5735 5737 5741 5745 5748 5752 5757 5763 5769 5773 5776 5782 5786 5791 5796 5799 5804 5809 5811 5813 5817 5820 5822 5825 5827 5828 5829 5830 5832 5832 5833 5837 5840 5842 5844 5847 5850 5852 5854 5856 5858 5859 5861 5863 5865 5867 5869 5871 5872 5874 5875 5877 5879 5881 5883 5884 5885 5886 5887 5889 5891 5892 5893 5895 5896 5896 5897 5898 5899 5900 5901 5902 5903 5904 5904 5904 5905 5905 5906 5906 5906
5700 5705 5709 5714 5720 5726 5731 5736 5739 5742 5746 5753 5760 5764 5768 5772 5777 5781 5787 5791 5795 5799 5804 5806 5809 5813 5816 5818 5821 5823 5824 5825 5827 5829 5830 5832 5834 5835 5837 5841 5844 5846 5847 5849 5852 5854 5856 5858 5860 5862 5865 5867 5869 5870 5872 5873 5875 5876 5878 5880 5881 5883 5883 5884 5886 5888 5889 5891 5892 5893 5894 5895 5896 5897 5898 5899 5900 5901 5901 5902 5902 5903 5904 5904 5905 5905
5692 5695 5700 5707 5712 5718 5724 5730 5735 5738 5742 5747 5752 5756 5761 5767 5772 5776 5781 5785 5790 5794 5798 5802 5805 5808 5812 5815 5817 5820 5822 5823 5826 5829 5830 5831 5833 5834 5836 5838 5840 5842 5843 5845 5848 5850 5852 5855 5857 5859 5862 5864 5866 5868 5869 5871 5872 5874 5876 5877 5878 5879 5880 5882 5884 5886 5887 5888 5889 5890 5891 5892 5893 5894 5896 5897 5898 5899 5899 5900 5900 5901 5902 5903 5903 5903
5682 5688 5697 5703 5708 5715 5721 5726 5731 5734 5734 5738 5746 5752 5757 5761 5766 5770 5774 5779 5784 5788 5792 5797 5800 5803 5807 5812 5815 5818 5821 5823 5825 5827 5829 5830 5832 5834 5835 5836 5838 5840 5842 5843 5846 5848 5849 5851 5853 5855 5858 5860 5863 5865 5867 5868 5870 5872 5873 5874 5875 5876 5878 5880 5881 5883 5884 5885 5886 5888 5889 5890 5891 5892 5893 5894 5896 5896 5897 5898 5899 5900 5901 5901 5901 5901
5676 5685 5692 5695 5702 5712 5717 5720 5725 5725 5726 5734 5743 5748 5751 5755 5760 5765 5768 5773 5779 5783 5788 5793 5796 5800 5804 5808 5811 5814 5817 5820 5822 5824 5825 5827 5829 5832 5833 5835 5837 5838 5839 5841 5843 5845 5847 5848 5850 5853 5855 5858 5860 5862 5864 5866 5868 5869 5870 5871 5873 5874 5876 5877 5878 5879 5881 5882 5884 5886 5887 5888 5889 5890 5891 5892 5893 5894 5895 5896 5897 5898 5899 5899 5899 5900
5673 5680 5684 5689 5699 5707 5709 5712 5716 5718 5722 5731 5737 5740 5744 5749 5755 5760 5763 5768 5774 5780 5785 5789 5792 5796 5800 5803 5806 5809 5813 5817 5819 5821 5823 5825 5827 5829 5831 5833 5835 5837 5838 5840 5842 5843 5845 5847 5849 5851 5853 5855 5858 5860 5862 5864 5865 5866 5867 5869 5871 5872 5874 5875 5875 5876 5878 5880 5881 5883 5885 5886 5887 5887 5888 5889 5890 5891 5893 5894 5895 5895 5896 5897 5898 5898
5668 5673 5678 5685 5694 5700 5702 5704 5710 5714 5719 5725 5728 5732 5737 5742 5748 5754 5759 5764 5770 5774 5779 5784 5787 5790 5794 5798 5801 5804 5808 5812 5815 5818 5821 5823 5824 5827 5829 5831 5833 5835 5836 5837 5839 5841 5844 5846 5848 5849 5851 5853 5855 5857 5859 5861 5862 5864 5865 5867 5868 5870 5871 5872 5873 5874 5875 5877 5879 5881 5882 5884 5884 5885 5886 5887 5888 5890 5891 5892 5893 5893 5893 5894 5895 5896
5661 5668 5673 5679 5687 5694 5696 5700 5705 5710 5714 5718 5721 5725 5730 5736 5744 5750 5753 5758 5763 5768 5773 5778 5781 5784 5789 5793 5796 5800 5804 5808 5812 5816 5819 5820 5821 5823 5825 5826 5828 5830 5831 5834 5837 5839 5841 5843 5845 5847 5850 5851 5853 5855 5857 5858 5860 5861 5863 5864 5866 5867 5869 5870 5871 5872 5873 5875 5877 5878 5880 5881 5882 5883 5884 5885 5887 5888 5889 5890 5890 5890 5891 5891 5892 5893
5656 5662 5667 5673 5681 5687 5692 5696 5700 5705 5710 5715 5717 5720 5725 5732 5738 5742 5746 5751 5757 5762 5767 5772 5776 5781 5786 5790 5792 5797 5801 5805 5809 5812 5813 5814 5817 5818 5820 5821 5823 5826 5828 5831 5834 5836 5838 5841 5843 5845 5847 5849 5850 5852 5854 5855 5857 5858 5860 5862 5863 5864 5866 5868 5869 5870 5871 5873 5874 5876 5877 5878 5879 5880 5882 5883 5885 5886 5887 5887 5888 5888 5888 5888 5889 5890
5651 5657 5661 5667 5675 5680 5685 5690 5695 5702 5708 5709 5710 5714 5720 5725 5729 5735 5742 5748 5752 5755 5761 5767 5773 5777 5781 5785 5788 5792 5797 5800 5803 5805 5806 5809 5813 5815 5817 5819 5821 5823 5826 5828 5830 5833 5835 5838 5839 5842 5844 5846 5848 5849 5851 5853 5854 5855 5857 5859 5860 5861 5864 5866 5867 5868 5869 5870 5871 5873 5874 5875 5876 5878 5879 5881 5882 5883 5884 5885 5885 5885 5885 5886 5886 5886
5645 5650 5655 5661 5668 5674 5679 5685 5691 5698 5701 5701 5704 5709 5712 5716 5722 5730 5738 5743 5744 5749 5756 5762 5767 5770 5774 5780 5784 5787 5791 5794 5797 5798 5801 5805 5809 5812 5814 5816 5818 5820 5822 5824 5827 5830 5832 5834 5836 5838 5841 5843 5845 5847 5848 5849 5851 5852 5854 5856 5857 5859 5861 5863 5864 5865 5866 5867 5869 5870 5872 5873 5874 5875 5876 5878 5879 5880 5881 5881 5882 5882 5882 5883 5883 5883
5640 5645 5650 5657 5663 5668 5674 5679 5686 5692 5694 5695 5700 5703 5704 5711 5717 5723 5731 5736 5738 5743 5750 5755 5759 5764 5770 5775 5779 5781 5785 5789 5792 5795 5798 5802 5805 5808 5810 5812 5814 5816 5818 5821 5824 5826 5828 5830 5833 5835 5837 5840 5842 5843 5844 5846 5848 5849 5851 5852 5854 5856 5857 5859 5860 5862 5863 5865 5866 5867 5869 5870 5871 5872 5873 5874 5875 5876 5877 5878 5878 5879 5879 5879 5880 5880
5636 5640 5646 5652 5657 5662 5668 5672 5679 5686 5687 5687 5693 5696 5698 5705 5711 5715 5723 5729 5732 5737 5743 5747 5753 5759 5765 5770 5774 5777 5780 5785 5788 5791 5793 5797 5800 5802 5805 5807 5809 5812 5815 5817 5820 5822 5824 5826 5829 5831 5833 5836 5838 5839 5841 5843 5844 5846 5848 5849 5851 5853 5853 5855 5857 5859 5860 5862 5863 5864 5866 5867 5868 5869 5869 5870 5871 5872 5873 5874 5874 5875 5875 5876 5876 5876
5632 5636 5641 5647 5653 5658 5662 5665 5671 5677 5678 5679 5686 5691 5692 5697 5703 5709 5717 5723 5727 5731 5736 5741 5748 5754 5759 5764 5769 5772 5776 5779 5783 5786 5789 5793 5796 5798 5800 5802 5805 5808 5810 5813 5816 5818 5820 5823 5825 5827 5830 5832 5834 5836 5837 5839 5841 5843 5844 5846 5848 5849 5850 5852 5854 5855 5857 5858 5859 5861 5862 5863 5864 5865 5866 5867 5868 5869 5869 5870 5870 5871 5871 5871 5872 5872
5626 5631 5636 5641 5646 5651 5654 5658 5662 5667 5671 5675 5681 5684 5687 5692 5698 5705 5711 5716 5720 5724 5730 5735 5741 5747 5753 5759 5764 5767 5771 5774 5777 5781 5786 5789 5791 5793 5796 5798 5801 5804 5806 5808 5811 5814 5816 5819 5821 5824 5826 5828 5831 5832 5834 5835 5837 5839 5840 5842 5844 5845 5846 5848 5850 5852 5853 5855 5856 5857 5858 5860 5861 5861 5862 5863 5864 5865 5866 5866 5866 5866 5867 5867 5867 5867
5620 5624 5629 5633 5638 5643 5648 5651 5654 5659 5665 5670 5673 5677 5682 5687 5693 5700 5706 5710 5714 5720 5725 5730 5735 5741 5747 5753 5758 5762 5765 5769 5772 5777 5782 5785 5787 5789 5792 5795 5797 5799 5801 5804 5807 5809 5812 5815 5817 5820 5822 5824 5827 5828 5830 5832 5833 5835 5837 5839 5840 5842 5843 5845 5846 5848 5849 5850 5852 5853 5855 5856 5857 5858 5859 5859 5860 5861 5862 5862 5862 5862 5863 5863 5862 5862
5615 5619 5623 5628 5633 5638 5644 5648 5650 5654 5659 5663 5666 5672 5678 5682 5687 5695 5701 5705 5711 5716 5721 5725 5730 5735 5740 5746 5752 5757 5761 5764 5768 5772 5777 5780 5782 5785 5788 5791 5793 5795 5797 5800 5803 5805 5807 5810 5814 5816 5818 5820 5822 5824 5826 5827 5829 5831 5833 5834 5836 5837 5839 5841 5842 5844 5845 5846 5848 5849 5851 5852 5853 5854 5855 5855 5856 5857 5857 5858 5858 5858 5858 5858 5858 5858
5611 5614 5619 5623 5627 5631 5638 5643 5646 5648 5651 5656 5663 5670 5674 5676 5681 5688 5694 5700 5705 5709 5714 5719 5723 5728 5734 5741 5747 5753 5757 5761 5764 5767 5771 5774 5777 5780 5784 5786 5789 5791 5793 5796 5798 5801 5803 5806 5809 5811 5813 5815 5818 5820 5822 5823 5825 5827 5828 5830 5831 5833 5835 5837 5838 5840 5841 5842 5844 5845 5846 5848 5849 5850 5850 5851 5852 5852 5853 5853 5853 5853 5854 5854 5854 5853
5607 5610 5614 5618 5620 5624 5630 5636 5637 5640 5645 5653 5660 5666 5668 5670 5675 5682 5689 5695 5699 5703 5708 5714 5718 5722 5728 5735 5741 5747 5752 5756 5759 5762 5765 5769 5772 5776 5779 5782 5784 5787 5789 5792 5794 5796 5798 5801 5804 5806 5809 5811 5813 5815 5817 5819 5820 5822 5824 5825 5827 5829 5830 5832 5834 5835 5837 5838 5839 5840 5842 5843 5844 5845 5846 5847 5847 5848 5848 5848 5848 5848 5849 5849 5849 5849
5603 5606 5610 5613 5615 5618 5624 5629 5634 5639 5645 5651 5656 5658 5660 5663 5670 5677 5683 5688 5693 5698 5703 5709 5713 5717 5722 5729 5735 5741 5747 5751 5754 5757 5760 5764 5767 5770 5774 5777 5779 5782 5785 5787 5789 5791 5794 5796 5799 5801 5804 5807 5809 5810 5812 5814 5815 5817 5819 5821 5823 5824 5826 5828 5829 5830 5832 5833 5834 5835 5836 5838 5839 5840 5840 5841 5842 5842 5842 5843 5843 5843 5843 5844 5844 5844
5601 5605 5608 5609 5611 5615 5619 5625 5630 5635 5638 5642 5645 5647 5651 5658 5665 5672 5677 5682 5688 5693 5698 5703 5708 5712 5716 5723 5729 5735 5741 5746 5749 5752 5755 5758 5761 5765 5768 5771 5773 5776 5779 5782 5784 5786 5788 5791 5793 5796 5799 5801 5803 5805 5807 5809 5811 5812 5814 5816 5818 5819 5821 5822 5824 5825 5827 5828 5829 5830 5831 5832 5833 5834 5835 5835 5835 5836 5836 5837 5838 5838 5838 5838 5839 5838
5598 5601 5603 5605 5608 5613 5616 5619 5623 5625 5629 5634 5639 5643 5649 5657 5663 5668 5672 5677 5682 5687 5692 5697 5702 5707 5711 5717 5723 5729 5735 5739 5743 5747 5750 5753 5756 5759 5762 5764 5767 5771 5774 5777 5779 5782 5784 5786 5789 5791 5793 5796 5798 5800 5802 5804 5806 5808 5809 5811 5813 5814 5816 5817 5818 5820 5821 5822 5824 5825 5826 5826 5827 5828 5829 5829 5828 5829 5831 5832 5832 5831 5831 5832 5832 5831